^^
Datos históricos de la estación: Murcia-Puente Tocinos
Diario Informe para Marzo 21, 2017 Unidades:  Inglés    Métrico   Ambas
« Anterior Día
Siguiente Día »
Diario Semanal Mensual Anual Configurable
  Máximo: Mínimo: Media:
Temperatura: 79.2 °F 55.9 °F 66.2 °F
Punto de rocio: 55.2 °F 40.8 °F 48.4 °F
Humedad: 83% 29% 56%
Velocidad viento: 11.8mph 0mph 4.5mph
Racha viento: 20.7mph - -
Viento- - SSO
Presión: 29.9 in 29.8 in -
Precipitación: 0 in    
Historical Graphs
 
 
Tabla de datos para Marzo 21, 2017
Hora Temperatura Punto de rocio Presión Viento Velocidad viento Racha viento Humedad Intensidad lluvia(por hora) Nubes
00:00 61 °F 52.5 °F 29.9 in SSW 2 mph 2.3 mph 74% 0 in CLR
00:05 61 °F 52.5 °F 29.9 in SSW 2 mph 2 mph 74% 0 in CLR
00:10 60.8 °F 52.9 °F 29.9 in Calm   3.5 mph 75% 0 in CLR
00:15 60.6 °F 52.5 °F 29.9 in Calm   4.6 mph 75% 0 in CLR
00:20 60.6 °F 52.5 °F 29.9 in WSW 2.4 mph 4.6 mph 75% 0 in CLR
00:25 60.4 °F 52.5 °F 29.9 in SSW 2.4 mph 2.4 mph 75% 0 in CLR
00:30 60.4 °F 52.9 °F 29.9 in SSW 1.8 mph 2.3 mph 76% 0 in CLR
00:35 60.4 °F 52.9 °F 29.9 in SSW 1.8 mph 1.8 mph 76% 0 in CLR
00:40 60.3 °F 52.7 °F 29.9 in Calm   2.3 mph 76% 0 in CLR
00:45 60.1 °F 52.5 °F 29.9 in Calm   2.3 mph 76% 0 in CLR
00:50 59.9 °F 52.7 °F 29.9 in WSW 1.4 mph 2.3 mph 77% 0 in CLR
00:55 59.7 °F 52.5 °F 29.9 in ESE 1.4 mph 2.3 mph 77% 0 in CLR
01:00 59.5 °F 52.7 °F 29.9 in SSW 1.4 mph 3.6 mph 78% 0 in CLR
01:05 59.5 °F 52.7 °F 29.9 in SW 1.4 mph 6.9 mph 78% 0 in CLR
01:10 59.4 °F 52.9 °F 29.9 in SSW 3.1 mph 8.1 mph 79% 0 in CLR
01:15 59.2 °F 53.1 °F 29.9 in SW 3.1 mph 9.2 mph 80% 0 in CLR
01:20 58.8 °F 53.1 °F 29.9 in SSW 5.4 mph 5.8 mph 81% 0 in CLR
01:25 58.8 °F 53.1 °F 29.9 in SSW 5.4 mph 5.8 mph 81% 0 in CLR
01:31 58.6 °F 53.2 °F 29.9 in WSW 4 mph 5.8 mph 82% 0 in CLR
01:36 58.6 °F 53.2 °F 29.9 in SW 4 mph 5.9 mph 82% 0 in CLR
01:41 58.5 °F 53.1 °F 29.9 in SSW 4 mph 8.1 mph 82% 0 in CLR
01:46 58.3 °F 53.1 °F 29.9 in SSW 4 mph 8.1 mph 83% 0 in CLR
01:51 58.3 °F 53.1 °F 29.9 in SSW 5.2 mph 6.9 mph 83% 0 in CLR
01:56 58.1 °F 53.1 °F 29.9 in SW 5.2 mph 5.8 mph 83% 0 in CLR
02:01 58.1 °F 53.1 °F 29.9 in SSW 4 mph 5.8 mph 83% 0 in CLR
02:06 58.1 °F 53.1 °F 29.9 in SSW 4 mph 4 mph 83% 0 in CLR
02:11 58.1 °F 53.1 °F 29.9 in SSW 3.1 mph 4.6 mph 83% 0 in CLR
02:16 58.1 °F 52.5 °F 29.9 in SSW 3.1 mph 6.9 mph 82% 0 in CLR
02:21 58.1 °F 52.5 °F 29.9 in SSW 4 mph 8.1 mph 82% 0 in CLR
02:26 58.1 °F 52.5 °F 29.9 in SSW 5.2 mph 5.9 mph 82% 0 in CLR
02:31 58.3 °F 52.5 °F 29.9 in SW 5.2 mph 8.1 mph 81% 0 in CLR
02:36 58.1 °F 52.3 °F 29.9 in SW 5.4 mph 9.2 mph 81% 0 in CLR
02:41 58.1 °F 52.3 °F 29.9 in SSW 5.4 mph 8.1 mph 81% 0 in CLR
02:46 57.9 °F 52.2 °F 29.9 in SSW 5.2 mph 8.1 mph 81% 0 in CLR
02:51 57.9 °F 52.2 °F 29.9 in SSW 5.2 mph 6.9 mph 81% 0 in CLR
02:56 57.9 °F 51.8 °F 29.9 in SW 4.3 mph 4.6 mph 80% 0 in CLR
03:01 57.9 °F 51.8 °F 29.9 in South 4.3 mph 4.6 mph 80% 0 in CLR
03:06 57.9 °F 51.8 °F 29.9 in SSW 3.6 mph 5.9 mph 80% 0 in CLR
03:11 57.9 °F 51.8 °F 29.9 in SSW 3.6 mph 5.4 mph 80% 0 in CLR
03:16 57.7 °F 51.6 °F 29.9 in SSW 5.2 mph 8.1 mph 80% 0 in CLR
03:21 57.7 °F 52 °F 29.9 in SSW 5.2 mph 5.8 mph 81% 0 in CLR
03:26 57.6 °F 51.8 °F 29.9 in SSW 4 mph 5.8 mph 81% 0 in CLR
03:31 57.6 °F 51.8 °F 29.9 in South 4 mph 4.7 mph 81% 0 in CLR
03:36 57.6 °F 51.8 °F 29.9 in SW 4.3 mph 4.6 mph 81% 0 in CLR
03:41 57.6 °F 51.4 °F 29.9 in SW 4.3 mph 8.1 mph 80% 0 in CLR
03:46 57.6 °F 51.4 °F 29.9 in SSW 5.2 mph 6.9 mph 80% 0 in CLR
03:51 57.6 °F 51.4 °F 29.9 in SW 5.2 mph 6.9 mph 80% 0 in CLR
03:56 57.6 °F 51.4 °F 29.9 in SSW 4.3 mph 5.8 mph 80% 0 in CLR
04:01 57.7 °F 51.6 °F 29.9 in SW 4.3 mph 5.9 mph 80% 0 in CLR
04:06 57.7 °F 51.3 °F 29.8 in SW 4.7 mph 5.8 mph 79% 0 in CLR
04:11 57.7 °F 51.3 °F 29.8 in SW 4.7 mph 4.7 mph 79% 0 in CLR
04:16 57.7 °F 51.3 °F 29.8 in SSW 3.6 mph 5.8 mph 79% 0 in CLR
04:21 57.7 °F 50.9 °F 29.8 in SSW 3.6 mph 5.8 mph 78% 0 in CLR
04:26 57.7 °F 50.9 °F 29.8 in South 3.6 mph 3.6 mph 78% 0 in CLR
04:31 57.7 °F 50.9 °F 29.8 in SSW 3.6 mph 5.8 mph 78% 0 in CLR
04:36 57.7 °F 50.5 °F 29.8 in WSW 3.1 mph 4.6 mph 77% 0 in CLR
04:41 57.6 °F 50.7 °F 29.8 in SW 3.1 mph 4.6 mph 78% 0 in CLR
04:46 57.4 °F 50.5 °F 29.8 in WSW 3.1 mph 3.5 mph 78% 0 in CLR
04:51 57 °F 50.2 °F 29.8 in West 3.1 mph 4.7 mph 78% 0 in CLR
04:56 57 °F 50.2 °F 29.8 in WSW 3.1 mph 3.5 mph 78% 0 in CLR
05:02 57 °F 50.2 °F 29.8 in WSW 3.1 mph 4.6 mph 78% 0 in CLR
05:07 56.8 °F 50.2 °F 29.8 in WNW 2 mph 3.5 mph 78% 0 in CLR
05:12 56.8 °F 50.4 °F 29.8 in West 2 mph 3.5 mph 79% 0 in CLR
05:17 56.5 °F 50 °F 29.8 in West 2.4 mph 3.5 mph 79% 0 in CLR
05:22 56.1 °F 50 °F 29.8 in WSW 2.4 mph 3.5 mph 80% 0 in CLR
05:27 56.1 °F 50 °F 29.8 in WSW 2.4 mph 4.6 mph 80% 0 in CLR
05:32 56.1 °F 50 °F 29.8 in West 2.4 mph 4.7 mph 80% 0 in CLR
05:37 55.9 °F 49.8 °F 29.9 in WSW 3.1 mph 4.6 mph 80% 0 in CLR
05:42 55.9 °F 49.8 °F 29.9 in WSW 3.1 mph 4.6 mph 80% 0 in CLR
05:47 56.1 °F 50 °F 29.9 in West 3.1 mph 5.8 mph 80% 0 in CLR
05:52 55.9 °F 49.8 °F 29.9 in SW 3.1 mph 5.8 mph 80% 0 in CLR
05:57 56.1 °F 49.6 °F 29.9 in WSW 3.1 mph 3.5 mph 79% 0 in CLR
06:02 56.1 °F 49.6 °F 29.9 in West 3.1 mph 4.6 mph 79% 0 in CLR
06:07 56.1 °F 49.6 °F 29.9 in WSW 2.9 mph 4.6 mph 79% 0 in CLR
06:12 56.1 °F 49.5 °F 29.9 in WSW 2.9 mph 4.7 mph 78% 0 in CLR
06:17 56.3 °F 49.5 °F 29.9 in SW 3.6 mph 4.6 mph 78% 0 in CLR
06:22 56.5 °F 49.5 °F 29.9 in SW 3.6 mph 5.2 mph 77% 0 in CLR
06:27 56.7 °F 49.3 °F 29.9 in South 3.1 mph 4.6 mph 76% 0 in CLR
06:32 56.8 °F 48.9 °F 29.9 in South 3.1 mph 4.6 mph 75% 0 in CLR
06:37 57.2 °F 48.6 °F 29.9 in SSW 3.1 mph 5.2 mph 73% 0 in CLR
06:42 57.7 °F 48.4 °F 29.9 in SW 3.1 mph 5.8 mph 71% 0 in CLR
06:47 58.3 °F 48.2 °F 29.9 in SW 4.3 mph 6.9 mph 69% 0 in CLR
06:52 58.6 °F 47.7 °F 29.9 in WSW 4.3 mph 4.7 mph 67% 0 in CLR
06:57 58.8 °F 47.1 °F 29.9 in SW 4.3 mph 4.6 mph 65% 0 in CLR
07:02 59.2 °F 47.5 °F 29.9 in SW 4.3 mph 4.6 mph 65% 0 in
07:07 59.4 °F 47.1 °F 29.9 in SW 3.1 mph 4.7 mph 64% 0 in
07:12 59.5 °F 46.9 °F 29.9 in SW 3.1 mph 4.6 mph 63% 0 in
07:17 59.4 °F 47.1 °F 29.9 in SSW 3.1 mph 4.6 mph 64% 0 in
07:22 59.2 °F 47.5 °F 29.9 in SSW 3.1 mph 4.6 mph 65% 0 in
07:27 58.8 °F 47.5 °F 29.9 in WNW 2.9 mph 3.5 mph 66% 0 in
07:32 58.8 °F 47.5 °F 29.9 in West 2.9 mph 3.5 mph 66% 0 in
07:37 58.5 °F 47.1 °F 29.9 in SW 2.9 mph 4.6 mph 66% 0 in
07:47 58.3 °F 47.8 °F 29.9 in WSW 3.1 mph 5.2 mph 68% 0 in
07:52 58.3 °F 47.8 °F 29.9 in WSW 3.1 mph 5.8 mph 68% 0 in
07:57 58.3 °F 47.8 °F 29.9 in WSW 3.6 mph 4.6 mph 68% 0 in
08:02 58.3 °F 47.5 °F 29.9 in SW 3.6 mph 4.6 mph 67% 0 in
08:07 58.5 °F 47.5 °F 29.9 in West 2.9 mph 3.5 mph 67% 0 in
08:12 58.8 °F 47.5 °F 29.9 in West 2.9 mph 4.6 mph 66% 0 in
08:17 59.2 °F 47.8 °F 29.9 in SW 2.4 mph 3.6 mph 66% 0 in
08:22 59.7 °F 47.5 °F 29.9 in South 2.4 mph 5.2 mph 64% 0 in
08:27 60.4 °F 46.9 °F 29.9 in South 3.6 mph 4.7 mph 61% 0 in
08:32 61.5 °F 47.1 °F 29.9 in SSW 3.6 mph 6.9 mph 59% 0 in
08:37 62.2 °F 46.2 °F 29.9 in SSW 5.2 mph 6.9 mph 56% 0 in
08:42 62.8 °F 46.4 °F 29.9 in South 5.2 mph 6.9 mph 55% 0 in FEW
08:47 63.1 °F 46.8 °F 29.9 in South 4.7 mph 4.7 mph 55% 0 in
08:52 63.7 °F 46.8 °F 29.9 in WSW 4.7 mph 4.7 mph 54% 0 in
08:57 64.2 °F 45.7 °F 29.9 in SSW 2.4 mph 5.2 mph 51% 0 in FEW
09:02 64.9 °F 44.8 °F 29.9 in West 2.4 mph 5.8 mph 48% 0 in
09:07 65.7 °F 45.3 °F 29.9 in West 3.1 mph 6.9 mph 48% 0 in
09:12 66 °F 46.2 °F 29.9 in West 3.1 mph 3.1 mph 49% 0 in
09:17 66.6 °F 46.2 °F 29.9 in WNW 2.4 mph 5.8 mph 48% 0 in
09:22 66.9 °F 45.5 °F 29.9 in NW 2.4 mph 6.9 mph 46% 0 in
09:27 67.3 °F 45.1 °F 29.9 in WNW 3.6 mph 6.9 mph 45% 0 in
09:32 67.5 °F 45.3 °F 29.9 in WNW 3.6 mph 5.9 mph 45% 0 in
09:37 67.6 °F 45.5 °F 29.9 in West 4.7 mph 6.9 mph 45% 0 in FEW
09:42 67.8 °F 45.7 °F 29.9 in WNW 4.7 mph 5.8 mph 45% 0 in
09:47 68.2 °F 46 °F 29.9 in WNW 4.7 mph 5.8 mph 45% 0 in
09:58 68.7 °F 44.8 °F 29.9 in SW 3.1 mph 5.8 mph 42% 0 in
10:03 69.1 °F 44.4 °F 29.9 in West 3.1 mph 5.8 mph 41% 0 in
10:08 69.1 °F 44.4 °F 29.9 in WSW 4.3 mph 9.2 mph 41% 0 in
10:13 69.4 °F 44.8 °F 29.9 in WSW 4.3 mph 8.1 mph 41% 0 in
10:18 69.6 °F 45 °F 29.9 in WNW 4.3 mph 5.8 mph 41% 0 in CLR
10:23 70 °F 45.1 °F 29.9 in WNW 4.3 mph 5.2 mph 41% 0 in CLR
10:28 70 °F 44.4 °F 29.9 in WNW 3.6 mph 5.8 mph 40% 0 in CLR
10:33 70.3 °F 45 °F 29.9 in SW 3.6 mph 4.6 mph 40% 0 in CLR
10:38 70.5 °F 45 °F 29.9 in SW 3.6 mph 6.9 mph 40% 0 in CLR
10:43 70.7 °F 45.1 °F 29.9 in SW 3.6 mph 8.1 mph 40% 0 in CLR
10:48 70.9 °F 45.3 °F 29.9 in WNW 4.3 mph 4.6 mph 40% 0 in CLR
10:53 71.1 °F 44.8 °F 29.9 in West 4.3 mph 6.9 mph 39% 0 in CLR
10:58 71.4 °F 45.1 °F 29.9 in West 4 mph 10.4 mph 39% 0 in CLR
11:03 71.6 °F 44.6 °F 29.9 in NW 4 mph 11.5 mph 38% 0 in CLR
11:08 71.8 °F 45.5 °F 29.9 in West 6.2 mph 8.1 mph 39% 0 in CLR
11:13 72.1 °F 45.9 °F 29.9 in WSW 6.2 mph 6.2 mph 39% 0 in CLR
11:18 72.1 °F 45.1 °F 29.9 in WNW 5.9 mph 11.2 mph 38% 0 in
11:23 72.3 °F 45.3 °F 29.9 in WSW 5.9 mph 8.1 mph 38% 0 in
11:28 72.5 °F 44.8 °F 29.9 in SW 6.4 mph 9.2 mph 37% 0 in
11:33 72.7 °F 45 °F 29.9 in SSW 6.4 mph 6.4 mph 37% 0 in
11:38 72.9 °F 44.2 °F 29.9 in SSW 5.4 mph 5.8 mph 36% 0 in
11:48 73.6 °F 45 °F 29.9 in WSW 4.7 mph 5.8 mph 36% 0 in
11:53 73.9 °F 44.4 °F 29.9 in NW 4.7 mph 11.5 mph 35% 0 in
11:58 73.8 °F 44.4 °F 29.9 in WSW 5.4 mph 9.2 mph 35% 0 in
12:03 73.9 °F 44.4 °F 29.9 in South 5.4 mph 9.2 mph 35% 0 in
12:08 73.8 °F 43.5 °F 29.9 in SW 5.2 mph 6.9 mph 34% 0 in
12:13 74.3 °F 44.1 °F 29.9 in SSE 5.2 mph 6.2 mph 34% 0 in
12:18 74.7 °F 44.4 °F 29.9 in SSW 4.3 mph 6.9 mph 34% 0 in
12:23 74.5 °F 44.2 °F 29.9 in SW 4.3 mph 9.2 mph 34% 0 in
12:28 74.5 °F 44.2 °F 29.9 in SE 5.9 mph 8.1 mph 34% 0 in
12:33 74.7 °F 44.4 °F 29.9 in West 5.9 mph 6.9 mph 34% 0 in
12:38 75 °F 44.1 °F 29.9 in WSW 4.3 mph 8.1 mph 33% 0 in
12:43 75 °F 44.1 °F 29.9 in SW 4.3 mph 6.9 mph 33% 0 in
12:48 75.6 °F 44.4 °F 29.9 in SW 4.3 mph 5.9 mph 33% 0 in
12:53 75.6 °F 44.4 °F 29.9 in SSW 4.3 mph 5.8 mph 33% 0 in
12:58 75.9 °F 43.9 °F 29.9 in SSW 3.6 mph 5.8 mph 32% 0 in
13:03 75.9 °F 44.8 °F 29.9 in WSW 3.6 mph 9.2 mph 33% 0 in
13:08 75.7 °F 45.3 °F 29.9 in SW 5.4 mph 9.2 mph 34% 0 in
13:13 75.9 °F 44.8 °F 29.9 in ESE 5.4 mph 6.9 mph 33% 0 in
13:18 76.3 °F 44.2 °F 29.9 in SSE 4.3 mph 6.2 mph 32% 0 in
13:23 76.5 °F 43.5 °F 29.9 in ESE 4.3 mph 5.8 mph 31% 0 in
13:28 76.5 °F 44.4 °F 29.9 in East 3.6 mph 4.6 mph 32% 0 in
13:33 77 °F 45 °F 29.9 in WSW 3.6 mph 3.6 mph 32% 0 in
13:38 77.4 °F 44.4 °F 29.9 in West 2.9 mph 6.9 mph 31% 0 in
13:43 77.2 °F 44.2 °F 29.9 in West 2.9 mph 8.1 mph 31% 0 in
13:48 77.2 °F 44.2 °F 29.9 in West 4.7 mph 5.4 mph 31% 0 in
13:53 77.4 °F 43.5 °F 29.9 in ESE 4.7 mph 5.8 mph 30% 0 in
13:58 77.5 °F 44.4 °F 29.9 in North 3.1 mph 6.9 mph 31% 0 in
14:03 77.7 °F 43.9 °F 29.9 in West 3.1 mph 5.9 mph 30% 0 in
14:08 78.3 °F 44.2 °F 29.9 in NNW 3.1 mph 6.9 mph 30% 0 in
14:13 78.4 °F 44.4 °F 29.9 in West 3.1 mph 6.4 mph 30% 0 in
14:18 78.3 °F 44.2 °F 29.9 in WNW 4 mph 4.6 mph 30% 0 in
14:23 78.4 °F 43.5 °F 29.8 in NNE 4 mph 4.7 mph 29% 0 in
14:28 78.6 °F 43.7 °F 29.8 in WNW 2.4 mph 5.9 mph 29% 0 in
14:33 79 °F 44.1 °F 29.8 in SW 2.4 mph 5.8 mph 29% 0 in
14:38 78.8 °F 43.9 °F 29.8 in West 2.9 mph 6.9 mph 29% 0 in
14:48 79 °F 44.1 °F 29.8 in West 2.4 mph 4.6 mph 29% 0 in
14:53 78.8 °F 44.8 °F 29.8 in WNW 2.4 mph 3.5 mph 30% 0 in
14:58 79.2 °F 45 °F 29.8 in SSW 2.9 mph 2.9 mph 30% 0 in
15:03 79.2 °F 44.2 °F 29.8 in SE 2.9 mph 5.8 mph 29% 0 in
15:08 78.8 °F 43.9 °F 29.8 in East 3.6 mph 4.7 mph 29% 0 in
15:13 78.4 °F 43.5 °F 29.8 in SE 3.6 mph 5.8 mph 29% 0 in FEW
15:18 78.4 °F 44.4 °F 29.8 in North 3.6 mph 6.9 mph 30% 0 in FEW
15:23 78.4 °F 44.4 °F 29.8 in SE 3.6 mph 6.9 mph 30% 0 in FEW
15:28 78.3 °F 44.2 °F 29.8 in ESE 4.3 mph 6.9 mph 30% 0 in FEW
15:33 78.3 °F 44.2 °F 29.8 in ESE 4.3 mph 6.9 mph 30% 0 in FEW
15:38 78.1 °F 44.1 °F 29.8 in SE 4.3 mph 8.1 mph 30% 0 in FEW
15:43 78.3 °F 46 °F 29.8 in SE 4.3 mph 6.2 mph 32% 0 in FEW
15:49 78.3 °F 46 °F 29.8 in SSE 4.3 mph 5.8 mph 32% 0 in FEW
15:54 78.1 °F 46.6 °F 29.8 in SE 4.3 mph 6.9 mph 33% 0 in FEW
15:59 78.1 °F 45.9 °F 29.8 in SE 4.3 mph 6.9 mph 32% 0 in FEW
16:04 77.7 °F 47.1 °F 29.8 in ESE 5 mph 7 mph 34% 0 in FEW
16:09 77.7 °F 47.1 °F 29.8 in ESE 5 mph 7 mph 34% 0 in FEW
16:14 77.5 °F 46.9 °F 29.8 in SSW 4.7 mph 6.9 mph 34% 0 in FEW
16:19 77.4 °F 46.8 °F 29.8 in SSE 6 mph 8 mph 34% 0 in FEW
16:24 77.4 °F 46.8 °F 29.8 in SSE 5.4 mph 6.9 mph 34% 0 in FEW
16:29 77.5 °F 48.6 °F 29.8 in SE 5.2 mph 6.9 mph 36% 0 in FEW
16:34 77.4 °F 48.4 °F 29.8 in SE 5.2 mph 9.2 mph 36% 0 in FEW
16:39 76.8 °F 47.8 °F 29.8 in SSE 4.7 mph 9.2 mph 36% 0 in FEW
16:44 76.6 °F 48.4 °F 29.8 in ESE 4.7 mph 8.1 mph 37% 0 in FEW
16:49 76.1 °F 47.8 °F 29.8 in East 5.4 mph 5.4 mph 37% 0 in FEW
16:54 75.9 °F 47.8 °F 29.8 in ENE 5.4 mph 6.9 mph 37% 0 in FEW
16:59 75.6 °F 48.2 °F 29.8 in East 4 mph 6.9 mph 38% 0 in FEW
17:00 75.6 °F 48.2 °F 29.8 in East 4 mph 5.8 mph 38% 0 in FEW
17:05 75.6 °F 49.5 °F 29.8 in NNE 4 mph 4.6 mph 40% 0 in FEW
17:10 74.8 °F 53.2 °F 29.8 in NNE 3.6 mph 11.5 mph 47% 0 in FEW
17:15 73.6 °F 53.8 °F 29.8 in NNE 3.6 mph 9.2 mph 50% 0 in
17:20 72.9 °F 54.7 °F 29.8 in NNE 6.9 mph 11.5 mph 53% 0 in
17:25 72.1 °F 54.7 °F 29.8 in NNE 6.9 mph 13 mph 54% 0 in
17:30 71.4 °F 54.9 °F 29.8 in NE 6.9 mph 12.7 mph 56% 0 in
17:35 70.5 °F 55 °F 29.8 in NNE 6.9 mph 12.7 mph 58% 0 in
17:40 70 °F 55 °F 29.8 in NE 9.2 mph 11.5 mph 59% 0 in
17:45 69.6 °F 55 °F 29.8 in North 9.2 mph 9.2 mph 60% 0 in
17:50 69.4 °F 54.9 °F 29.8 in East 7.4 mph 11.5 mph 60% 0 in
17:55 69.1 °F 55 °F 29.8 in NNE 7.4 mph 12.7 mph 61% 0 in
18:00 68.9 °F 54.9 °F 29.8 in NNE 8.7 mph 11.5 mph 61% 0 in
18:05 68.9 °F 54.9 °F 29.8 in NNE 8.7 mph 9.2 mph 61% 0 in
18:10 68.7 °F 55.2 °F 29.8 in NNE 6.9 mph 10.4 mph 62% 0 in
18:15 68.5 °F 55 °F 29.8 in NE 6.9 mph 9.2 mph 62% 0 in
18:20 68.5 °F 55 °F 29.8 in NNE 6.2 mph 10.2 mph 62% 0 in
18:25 68.5 °F 55 °F 29.8 in NNE 6.2 mph 9.2 mph 62% 0 in
18:30 68.4 °F 54.9 °F 29.8 in NNE 6.2 mph 11.5 mph 62% 0 in
18:35 68.2 °F 55 °F 29.9 in NE 6.2 mph 10 mph 63% 0 in
18:40 67.8 °F 54.9 °F 29.9 in NE 6.9 mph 8.1 mph 63% 0 in
18:42 67.8 °F 54.9 °F 29.9 in NE 6.9 mph 10.4 mph 63% 0 in
18:47 67.6 °F 54.7 °F 29.9 in NNE 6.2 mph 6.9 mph 63% 0 in
18:52 67.6 °F 55 °F 29.9 in NE 6.2 mph 6.2 mph 64% 0 in
18:57 67.6 °F 55 °F 29.9 in NE 4.7 mph 5.8 mph 64% 0 in
19:02 67.5 °F 54.9 °F 29.9 in NNE 4.7 mph 8.1 mph 64% 0 in
19:07 67.3 °F 54.7 °F 29.9 in NNE 5.9 mph 8.1 mph 64% 0 in
19:12 66.9 °F 54.9 °F 29.9 in ENE 5.9 mph 8.1 mph 65% 0 in
19:17 66.9 °F 54.9 °F 29.9 in NNE 5.2 mph 5.2 mph 65% 0 in FEW
19:22 66.9 °F 54.9 °F 29.9 in NNE 5.2 mph 5.2 mph 65% 0 in FEW
19:27 66.9 °F 54.9 °F 29.9 in NW 2.9 mph 4.6 mph 65% 0 in FEW
19:32 66.6 °F 54.9 °F 29.9 in North 2.9 mph 5.8 mph 66% 0 in FEW
19:37 66.6 °F 54.9 °F 29.9 in NNW 4.3 mph 6.9 mph 66% 0 in FEW
19:42 66.4 °F 54.7 °F 29.9 in NNW 4.3 mph 4.7 mph 66% 0 in FEW
19:47 66.2 °F 54.9 °F 29.9 in WNW 4.7 mph 8.1 mph 67% 0 in FEW
19:52 66 °F 54.7 °F 29.9 in NW 4.7 mph 4.7 mph 67% 0 in FEW
19:57 65.8 °F 54.7 °F 29.9 in WNW 3.6 mph 3.6 mph 67% 0 in FEW
20:02 65.8 °F 54.7 °F 29.9 in WNW 3.6 mph 4.6 mph 67% 0 in FEW
20:07 65.8 °F 55 °F 29.9 in NW 2 mph 3.6 mph 68% 0 in FEW
20:12 65.7 °F 54.9 °F 29.9 in NNW 2 mph 3.5 mph 68% 0 in FEW
20:17 65.7 °F 54.9 °F 29.9 in NNE 2.4 mph 4.6 mph 68% 0 in FEW
20:22 65.7 °F 54.3 °F 29.9 in NE 2.4 mph 4.6 mph 67% 0 in FEW
20:27 65.7 °F 54 °F 29.9 in NE 2.9 mph 2.9 mph 66% 0 in FEW
20:32 65.7 °F 54 °F 29.9 in ENE 2.9 mph 4.6 mph 66% 0 in FEW
20:37 65.7 °F 53.6 °F 29.9 in NNE 2.9 mph 4.6 mph 65% 0 in FEW
20:42 65.7 °F 53.6 °F 29.9 in NNW 2.9 mph 3.5 mph 65% 0 in FEW
20:47 65.7 °F 53.6 °F 29.9 in West 2.4 mph 3.6 mph 65% 0 in FEW
20:52 65.8 °F 50.5 °F 29.9 in WNW 2.4 mph 8.5 mph 58% 0 in FEW
20:57 66 °F 46.2 °F 29.9 in WNW 4.7 mph 11.5 mph 49% 0 in FEW
21:02 66.9 °F 41.7 °F 29.9 in West 4.7 mph 15 mph 40% 0 in FEW
21:07 67.5 °F 41 °F 29.9 in NW 9.7 mph 18.4 mph 38% 0 in FEW
21:12 67.6 °F 41.2 °F 29.9 in WNW 9.7 mph 18.4 mph 38% 0 in FEW
21:17 67.6 °F 41.2 °F 29.9 in WNW 11.8 mph 15 mph 38% 0 in FEW
21:22 67.5 °F 41 °F 29.9 in NW 11.8 mph 11.8 mph 38% 0 in FEW
21:27 67.3 °F 40.8 °F 29.9 in NW 8.1 mph 16.1 mph 38% 0 in FEW
21:37 66.9 °F 41.2 °F 29.9 in WNW 8.5 mph 20.7 mph 39% 0 in FEW
21:42 66.7 °F 41.5 °F 29.9 in West 8.5 mph 16.1 mph 40% 0 in FEW
21:47 66.6 °F 42.1 °F 29.9 in West 11.2 mph 13.8 mph 41% 0 in FEW
21:52 66.4 °F 42.1 °F 29.9 in West 11.2 mph 13.8 mph 41% 0 in FEW
21:57 66.2 °F 42.4 °F 29.9 in West 9.2 mph 19.6 mph 42% 0 in FEW
22:02 66 °F 42.3 °F 29.9 in West 9.2 mph 17.3 mph 42% 0 in FEW
22:07 65.8 °F 42.1 °F 29.9 in WNW 8.7 mph 12.7 mph 42% 0 in FEW
22:12 65.8 °F 42.6 °F 29.9 in West 8.7 mph 12.7 mph 43% 0 in FEW
22:17 65.7 °F 42.4 °F 29.9 in West 8.7 mph 12.7 mph 43% 0 in CLR
22:22 65.7 °F 42.4 °F 29.9 in West 8.7 mph 16.1 mph 43% 0 in CLR
22:27 65.5 °F 43 °F 29.9 in West 8.7 mph 10.4 mph 44% 0 in CLR
22:32 65.3 °F 42.8 °F 29.9 in WSW 8.7 mph 10.4 mph 44% 0 in CLR
22:37 65.1 °F 42.6 °F 29.9 in WSW 7.4 mph 10.4 mph 44% 0 in CLR
22:42 65.1 °F 42.6 °F 29.9 in WSW 7.4 mph 10.2 mph 44% 0 in CLR
22:47 65.1 °F 42.1 °F 29.9 in WSW 5.9 mph 11.8 mph 43% 0 in CLR
22:52 65.1 °F 42.1 °F 29.9 in SW 5.9 mph 11.5 mph 43% 0 in CLR
22:57 65.1 °F 42.1 °F 29.9 in West 6.9 mph 11.2 mph 43% 0 in CLR
23:02 65.1 °F 42.6 °F 29.9 in WSW 6.9 mph 13.8 mph 44% 0 in CLR
23:07 64.9 °F 42.4 °F 29.9 in West 6.2 mph 9.2 mph 44% 0 in CLR
23:12 64.8 °F 42.3 °F 29.9 in WSW 6.2 mph 8.1 mph 44% 0 in CLR
23:17 64.6 °F 42.3 °F 29.9 in SW 5.4 mph 6.9 mph 44% 0 in CLR
23:22 64.6 °F 42.3 °F 29.9 in SW 5.4 mph 9.2 mph 44% 0 in CLR
23:27 64.2 °F 42.4 °F 29.9 in SSW 5.9 mph 10.4 mph 45% 0 in CLR
23:32 64.2 °F 42.4 °F 29.9 in SW 5.9 mph 5.9 mph 45% 0 in CLR
23:37 64.2 °F 42.4 °F 29.9 in WSW 5.9 mph 5.9 mph 45% 0 in CLR
23:42 64.2 °F 42.4 °F 29.9 in SSW 5.9 mph 10.4 mph 45% 0 in CLR
23:47 64.2 °F 42.4 °F 29.9 in WSW 5.9 mph 9.7 mph 45% 0 in CLR
23:52 64 °F 42.3 °F 29.9 in SW 5.9 mph 9.2 mph 45% 0 in CLR
23:57 64 °F 42.3 °F 29.9 in SW 5.9 mph 7.6 mph 45% 0 in CLR
Murcia-Puente Tocinos, España
Compliments of Weather Underground - 2.75 mb

La estación de MeteoMurcia.com, publica sus datos en los siguientes proyectos:

Meteoclimatic www.awekas.at

W3Counter
Web Analytics